sat.trackr.live / text

‹ back to catalog

SCD 1

NORAD 22490 · 1993-009B

PAYLOAD ACTIVE UNKNOWN

§ Identity

Operator
Country
BRAZ
Launch date
1993-02-09
Launch site
AFETR
Launch vehicle
Mass (kg)
RCS (m²)
0.82

Purposes: earth_obs

External: N2YO · Heavens-Above · Gunter

§ Orbital elements

Epoch: 2026-09-19T08:39:47.663712Z

Period
99.57 min
Inclination
24.9708°
Eccentricity
0.0042117
Mean motion
14.46149921 rev/d
Perigee alt
708.3 km
Apogee alt
768.2 km
Semi-major
7,116.4 km
B*
3.4023e-5
RAAN
346.0942°
Arg perigee
54.9182°
Mean anomaly
357.3069°
Rev number
77,476

§ Raw data

SCD 11 22490U 93009B   26262.36096833  .00000310  00000+0  34023-4 0  99932 22490  24.9708 346.0942 0042117  54.9182 357.3069 14.46149921774766

JSON: /api/v1/satellites/22490 · /tle

For live sub-satellite position, see the globe view (requires WebGL).

§ Visibility from observer

Set your observer location to see the next 7 days of passes ≥ 10°. The values pass through the URL so the page stays shareable.

No JS? Fill the form by hand. The geolocation button needs JavaScript.